Satellite-Ground Cal/Val Region Overpasses Predictions

Prediction of Satellite NPP Overpassing Cal/Val Region: PacNW

Region Location: (Latitude: 10.00, Longitude: 139.50) to (Latitude: 22.70, Longitude: 165.60).

Table of predicted overpasses for the next 14.0 days since TLE Epoch: 12/20/2019
Interval Starting Time Starting Location Ending Time Ending Location
1 12/21/2019 03:36:10 ( 10.01, 145.63) 12/21/2019 03:39:46 ( 22.69, 142.61)
2 12/21/2019 14:29:41 ( 11.65, 165.59) 12/21/2019 14:30:09 ( 10.01, 165.22)
3 12/21/2019 16:08:03 ( 22.68, 142.85) 12/21/2019 16:11:38 ( 10.06, 139.85)
4 12/22/2019 03:17:08 ( 10.01, 150.38) 12/22/2019 03:20:44 ( 22.70, 147.37)
5 12/22/2019 15:49:00 ( 22.68, 147.61) 12/22/2019 15:52:35 ( 10.05, 144.61)
6 12/23/2019 02:58:05 ( 10.02, 155.14) 12/23/2019 03:01:40 ( 22.64, 152.14)
7 12/23/2019 15:29:58 ( 22.67, 152.37) 12/23/2019 15:33:33 ( 10.05, 149.37)
8 12/24/2019 02:39:03 ( 10.02, 159.90) 12/24/2019 02:42:38 ( 22.65, 156.90)
9 12/24/2019 15:10:55 ( 22.67, 157.13) 12/24/2019 15:14:30 ( 10.04, 154.13)
10 12/25/2019 02:20:00 ( 10.03, 164.66) 12/25/2019 02:23:35 ( 22.65, 161.66)
11 12/25/2019 14:51:53 ( 22.66, 161.89) 12/25/2019 14:55:28 ( 10.04, 158.89)
12 12/26/2019 03:42:28 ( 10.05, 144.04) 12/26/2019 03:46:03 ( 22.67, 141.04)
13 12/26/2019 14:34:03 ( 18.37, 165.60) 12/26/2019 14:36:25 ( 10.03, 163.65)
14 12/26/2019 16:14:20 ( 22.65, 141.27) 12/26/2019 16:16:24 ( 15.37, 139.51)
15 12/27/2019 03:23:25 ( 10.05, 148.80) 12/27/2019 03:27:00 ( 22.68, 145.80)
16 12/27/2019 15:55:17 ( 22.70, 146.04) 12/27/2019 15:58:53 ( 10.02, 143.03)
17 12/28/2019 03:04:22 ( 10.00, 153.57) 12/28/2019 03:07:58 ( 22.68, 150.56)
18 12/28/2019 15:36:14 ( 22.69, 150.80) 12/28/2019 15:39:50 ( 10.01, 147.79)
19 12/29/2019 02:45:19 ( 10.01, 158.33) 12/29/2019 02:48:55 ( 22.69, 155.31)
20 12/29/2019 15:17:12 ( 22.68, 155.56) 12/29/2019 15:20:48 ( 10.01, 152.54)
21 12/30/2019 02:26:17 ( 10.02, 163.09) 12/30/2019 02:29:53 ( 22.70, 160.07)
22 12/30/2019 14:58:10 ( 22.68, 160.32) 12/30/2019 15:01:45 ( 10.06, 157.32)
23 12/31/2019 02:09:57 ( 19.60, 165.60) 12/31/2019 02:10:49 ( 22.65, 164.84)
24 12/31/2019 03:48:44 ( 10.03, 142.47) 12/31/2019 03:52:16 ( 22.48, 139.51)
25 12/31/2019 14:39:07 ( 22.67, 165.07) 12/31/2019 14:42:42 ( 10.05, 162.07)
26 12/31/2019 16:20:37 ( 22.66, 139.70) 12/31/2019 16:20:50 ( 21.90, 139.51)
27 01/01/2020 03:29:42 ( 10.04, 147.23) 01/01/2020 03:33:17 ( 22.67, 144.23)
28 01/01/2020 16:01:35 ( 22.65, 144.45) 01/01/2020 16:05:10 ( 10.03, 141.46)
29 01/02/2020 03:10:39 ( 10.05, 151.98) 01/02/2020 03:14:14 ( 22.67, 148.98)
30 01/02/2020 15:42:32 ( 22.65, 149.21) 01/02/2020 15:46:07 ( 10.03, 146.21)
31 01/03/2020 02:51:36 ( 10.00, 156.76) 01/03/2020 02:55:12 ( 22.68, 153.74)


NCC Satellite Cal/Val Overpasses Prediction Service
